STARLINK-4591, 53607

Orbit data source: Space-Track

STARLINK-4591, 53607 is a payload satellite owned by SpaceX/Seattle (US) in LEO that was launched on Sun, 28 Aug 2022 UTC via an FALCON 9 launch vehicle from the Air Force Eastern Test Range (AFETR). Payload-class satellites include a variety of spacecraft equipped with specific instruments for various scientific and technological missions. These include communications satellites like Starlink; space stations such as the ISS; scientific satellites like the Hubble; Earth observation satellites from companies like Planet Labs, Umbra, and HawkEye 360; GPS; miniature CubeSats for education and research; and military/defense satellites.

Loading next visibility...
Identifier
53607, 2022-104V
Orbit
LEO
Country
Flag of USUS
Related business
Manufacturer
SpaceX/Seattle
Mission
Operational Commercial Communications
Bus & Motor
STARLINK, Unknown motor
Mass
300 kg wet, ~290 kg dry
Launch date (UTC)
2022-08-28 (4 years ago)
Launch vehicle
FALCON 9
Launch site
Air Force Eastern Test Range (AFETR)
Object type
Payload
Rocket body
Debris
Shape & HBR
Box + 1 Pan, 10.1 m
Radar Cross Section
13.562 m², Large (>1 m²)

Expand to show TLE details & history
Last TLE update: 1 day ago

TLE from 1 day ago
0 STARLINK-4591
1 53607U 22104V   26252.90046212 -.00000639  00000-0 -77942-5 0  9995
2 53607  53.1589 116.9064 0001146  79.4471 280.6661 15.34391284223708
Epoch: 2026-09-09T21:36Z
TLE epoch observation values (Epoch: 2026-09-09T21:36:39.927Z)
Latitude
0.00002°
Longitude
163.79417°
Altitude
463.485 km
Speed
7.636 km/s
True Right ascension
07h 47m 37s
True Declination
0° 00' 00"
Sunlit
Object was in daylight at epoch
Visualization orbit readout
Latitude
Unknown
Longitude
Unknown
Altitude
Unknown
Speed
Unknown
Apparent Right ascension
Unknown
Apparent Declination
Unknown
Sunlit
N/A
Visualization observer readout
Local Sidereal Time
17:47:47
Azimuth
Unknown
Elevation
Unknown
Doppler factor
Unknown
Orbital elements
Apogee altitude
463.77 km
Perigee altitude
462.202 km
Semi-major axis
6,841.123 km
Eccentricity
0.00011
Inclination
53.1589°
RAAN
116.9064°
Arg. of periapsis
79.4471°
True anomaly
280.65319°
Mean anomaly
280.6661°
Eccentric anomaly
280.65965°
Mean motion
3.83577 °/min
Orbital period
93.85 mins
BSTAR
-0.0000077942
Loading maneuver chart data...
Computing Atmospheric mass density...
Loading historical data...
Loading historical data...
Loading historical data...
Loading historical data...
Loading historical data...
Loading historical data...
Loading historical data...

Documentation

Showing up to 5 results
|